Погода в Мирном

Россия / Республика Крым     44°58′46″N   34°03′56″E
темп.,
°C
ветер,
м/с
пор.,
м/с
влажн.,
%
обл.,
%
осадки,
мм/ч
давл.,
гПа
погр.,
м
6 мая, чт
чт600:00+8ююв22545 0.0 101415
03:00+7юв224823 0.0 101314
06:00+8юв224593 0.0 101211
09:00+16зсз003697 0.0 1012356
12:00+19сз3233100 0.0 10121185
15:00+19зсз534058 0.0 10131088
18:00+16зсз444856 0.0 1013436
21:00+10з01655 0.0 101510
7 мая, пт
пт700:00+9ююв226238 0.0 101610
03:00+9ююв116234 0.0 101610
06:00+10юв116332 0.0 101610
09:00+17ююз124592 0.0 1016424
12:00+20зюз444291 0.0 10161198
15:00+20з56476 0.0 10151161
18:00+19зюз46585 0.0 1014704
21:00+13юв3368100 0.0 101542
8 мая, сб
сб800:00+12ююв346452 0.0 101446
03:00+12ююв3365100 0.0 101337
06:00+13юв3360100 0.0 101230
09:00+20ююв2244100 0.0 1011310
12:00+24зюз23326 0.0 10101484
15:00+23зсз6540100 0.0 1009908
18:00+15з4668100 0.0 1012663
21:00+10с71080100 0.0 1015717
9 мая, вс
вс900:00+8с61091100 0.8 1018732
03:00+6с379218 2.5 1020433
06:00+5зюз25957 0.0 1022163
09:00+10ссз56625 0.0 10241009
12:00+13ссз57425 0.0 10251925
15:00+14сз66395 0.0 10252171
18:00+13ссз45435 0.0 10251895
21:00+7з127556 0.0 102819
10 мая, пн
пн1000:00+6ю22856 0.0 102824
03:00+6ююв22804 0.0 102812
06:00+6юв11773 0.0 102810
09:00+13св23495 0.0 1028790
12:00+15ссв44395 0.0 10261808
15:00+16с34365 0.0 10242027
18:00+15ссз34435 0.0 10231658
21:00+9всв22620 0.0 102312